Regional Weather Roundup
Issued by NWS

Home | Current Version | Previous Version | Graphics & Text | Print | Product List | Glossary On
Versions: 1 2 3 4 5 6 7 8 9 10 11 12 13 14 15 16 17 18 19 20 21 22 23 24 25 26 27 28 29 30 31 32 33 34 35 36 37 38 39 40 41 42 43 44 45 46 47 48 49 50
000
ASUS43 KMKX 311521
RWRWI

WISCONSIN REGIONAL WEATHER ROUNDUP
NATIONAL WEATHER SERVICE MILWAUKEE/SULLIVAN WI
1000 AM CDT MON AUG 31 2015

NOTE: "FAIR" INDICATES FEW OR NO CLOUDS BELOW 12,000 FEET WITH NO
SIGNIFICANT WEATHER AND/OR OBSTRUCTIONS TO VISIBILITY.

WIZ001-002-006>008-014>016-023>028-311600-
NORTHWEST WISCONSIN

CITY           SKY/WX    TMP DP  RH WIND       PRES   REMARKS
SUPERIOR ARPT  MOSUNNY   71  66  85 SW10      29.88S
ASHLAND        SUNNY     73  66  78 S13G21    29.92S
HAYWARD        CLOUDY    70  64  81 S14       29.97R
SIREN          CLOUDY    71  66  86 SW12      29.94S
CUMBERLAND     CLOUDY    64  64 100 S8        29.98R FOG
RICE LAKE      CLOUDY    67  65  94 S7        30.00R FOG
CHETEK         CLOUDY   N/A N/A N/A S6        29.99S HAZE
LADYSMITH      CLOUDY    66  65  96 S7        30.03R FOG
EAU CLAIRE     CLOUDY    69  66  90 S7        29.99S
MENOMONIE      CLOUDY    69  68  98 S8        29.99S FOG
NEW RICHMOND   PTSUNNY   72  68  87 S8G16     29.96S
OSCEOLA        CLOUDY    72  72 100 S10       29.97S
$$

WIZ003>005-009-010-017-018-311600-
NORTH CENTRAL WISCONSIN

CITY           SKY/WX    TMP DP  RH WIND       PRES   REMARKS
MANITOWISH WTR MOSUNNY   68  64  85 SW8       30.00S
ARBOR VITAE    MOSUNNY   72  67  84 S10       30.01S
WOODRUFF       MOSUNNY   72  67  84 S10       30.01S
RHINELANDER    CLOUDY    67  63  87 SW8       30.04R
EAGLE RIVER    MOSUNNY   69  62  78 SW9       30.02R
LAND O LAKES   SUNNY     72  61  70 SW8       30.02R
PHILLIPS       CLOUDY    66  64  96 SW7       30.02R
TOMAHAWK       CLOUDY    65  64  97 CALM      30.04S FOG
MEDFORD        FOG       64  64 100 SW5       30.04S VSB 1
MERRILL        CLOUDY    67  66  97 SW6       30.05R FOG
$$

WIZ029-030-035-036-043>047-311600-
CENTRAL WISCONSIN

CITY           SKY/WX    TMP DP  RH WIND       PRES   REMARKS
WAUSAU         CLOUDY    64  63  96 SW6       30.03S FOG
MOSINEE        FOG       64  64 100 SW5       30.06R VSB 3/4
MARSHFIELD     CLOUDY    67  64  90 SW8       30.04S FOG
STEVENS POINT  CLOUDY    63  63 100 CALM      30.05R FOG
WAUPACA        CLOUDY    68  67  96 SW3       30.05R FOG
WAUTOMA        CLOUDY    69  68  97 CALM      30.06R
WISC RAPIDS    CLOUDY    67  65  93 SW3       30.05S
CAMP DOUGLAS   CLOUDY    68  68 100 S7        30.04R FOG
$$

WIZ011>013-019>022-031-037>040-048>050-311600-
NORTHEAST WISCONSIN

CITY           SKY/WX    TMP DP  RH WIND       PRES   REMARKS
ANTIGO         CLOUDY    64  64 100 W5        30.05S FOG
SHAWANO        CLOUDY    67  66  96 SW3       30.04R FOG
OCONTO         CLOUDY    64  64 100 W6        30.03R
STURGEON BAY   CLOUDY    66  63  88 W9        30.06R
GREEN BAY      PTSUNNY   71  67  87 SW7       30.03S
MANITOWOC      MOSUNNY   72  66  81 MISG      30.05R
APPLETON       CLOUDY    66  66 100 SW8       30.03S
CLINTONVILLE   CLOUDY    64  64 100 SW6       30.04R
OSHKOSH        CLOUDY    69  65  86 VRB6      30.05S
$$

WIZ032>034-041-042-053>061-311600-
SOUTHWEST WISCONSIN

CITY           SKY/WX    TMP DP  RH WIND       PRES   REMARKS
LA CROSSE      CLOUDY    68  65  90 S7        30.02R FOG
SPARTA         CLOUDY    68  65  90 S6        30.04R
VIROQUA          N/A     67  67 100 S3        30.05S
BOSCOBEL       CLOUDY    66  64  93 VRB3      30.05R FOG
PRAIRIE DU CHI SUNNY     67  65  93 CALM      30.04R FOG
PLATTEVILLE    SUNNY     71  71 100 S6        30.07R
$$

WIZ056-057-062-063-064-067-068-311600-
SOUTH CENTRAL WISCONSIN

CITY           SKY/WX    TMP DP  RH WIND       PRES   REMARKS
REEDSBURG      CLOUDY    70  67  90 S10       30.05R
BARABOO/DELLS  CLOUDY    70  65  84 S6        30.06R
LONE ROCK      SUNNY     70  65  84 CALM      30.06S
MINERAL POINT  SUNNY     70  68  94 S6        30.07S
MADISON        PTSUNNY   70  65  84 VRB6      30.06S
MIDDLETON      CLOUDY    71  71 100 SW6       30.08R
WATERTOWN      CLOUDY    65  65 100 CALM      30.07S
MONROE         SUNNY     72  68  88 S7        30.07S
JANESVILLE     PTSUNNY   68  66  94 CALM      30.08R FOG
$$

WIZ051-052-058>065-066-070>072-311600-
SOUTHEAST WISCONSIN

CITY           SKY/WX    TMP DP  RH WIND       PRES   REMARKS
MILWAUKEE      MOSUNNY   69  64  84 SW6       30.08R
WAUKESHA       CLOUDY    68  64  88 SW6       30.08S
MILWAUKEE/TIMM PTSUNNY   70  63  78 W5        30.08R
RACINE         SUNNY     72  65  78 W6        30.10R
BURLINGTON     SUNNY     66  66  99 CALM      30.08S
KENOSHA        SUNNY     72  67  84 CALM      30.09S HAZE
FOND DU LAC    CLOUDY    68  66  93 SW3       30.06S
SHEBOYGAN      PTSUNNY   73  66  78 W7        30.06R
WEST BEND      MOSUNNY   70  64  83 CALM      30.07R
JUNEAU         CLOUDY    64  63  98 CALM      30.09R
$$

LSZ147-162-311600-
LAKE SUPERIOR

STATION/POSITION TIME  TEMP    WIND        PRES    WAVE
                       AIR SEA DIR/SP/G            HT/PER
                 (UTC) (F)     (DEG/KT/KT) (MB)    (FT/S)
W MID LAKE BUOY  1450   58 54  180/  4/  4 1012.7R   1
DEVILS ISLAND    1500   67     210/  3/  4 1012.1F
PORT WING        1400   69     190/  7/ 13 1012.5
SAXON HARBOR     1400   71     190/ 10/ 15 1012.2F
$$

LMZ867-665-643>646-311600-
LAKE MICHIGAN

STATION/POSITION TIME  TEMP    WIND        PRES    WAVE
                       AIR SEA DIR/SP/G            HT/PER
                 (UTC) (F)     (DEG/KT/KT) (MB)    (FT/S)
CHAMBERS ISLAND  1400   63     210/  4/  8 1016.3R
S GREEN BAY BUOY 1300   63 63  240/ 10/ 12 1017.6R
N MID LAKE BUOY  1450   62 65  210/ 14/ 16 1016.0R   2/ 4
NORTHPORT PIER   1400   64     230/  4/  8 1015.9R
SHEBOYGAN LAKESH 1500   65     180/ 11/ 11 1017.9R
PORT WASHINGTON  1400   62     190/  8/  9 1018.6S
ATWATER BUOY     1300   56 49   CALM  /  2 1019.4R
MILWAUKEE LAKESH 1310   64     220/  5/  5   N/A
S MID LAKE BUOY  1450   66 69  280/  4/  4 1018.7R   0
KENOSHA   LAKESH 1500   60     170/  7/  8 1018.3S
$$

TC  - TEMPERATURE IN CELSIUS
VSB - VISIBILITY IN STATUTE MILES
WCI - WIND CHILL INDEX
HX  - HEAT INDEX




USA.gov is the U.S. government's official web portal to all federal, state and local government web resources and services.